TimeEDT,TemperatureF,Dew PointF,Humidity,Sea Level PressureIn,VisibilityMPH,Wind Direction,Wind SpeedMPH,Gust SpeedMPH,PrecipitationIn,Events,Conditions,WindDirDegrees,DateUTC
12:53 AM,55.9,50.0,80,30.13,10.0,Calm,Calm,-,N/A,,Overcast,0,2013-09-27 04:53:00
1:53 AM,57.0,50.0,77,30.13,10.0,North,3.5,-,N/A,,Overcast,360,2013-09-27 05:53:00
2:53 AM,57.0,50.0,77,30.13,10.0,NNW,3.5,-,N/A,,Overcast,330,2013-09-27 06:53:00
3:53 AM,57.0,50.0,77,30.13,10.0,NNW,3.5,-,N/A,,Overcast,330,2013-09-27 07:53:00
4:53 AM,55.9,50.0,80,30.14,10.0,NNW,4.6,-,N/A,,Overcast,330,2013-09-27 08:53:00
5:53 AM,55.9,50.0,80,30.16,10.0,NW,3.5,-,N/A,,Overcast,320,2013-09-27 09:53:00
6:53 AM,55.9,50.0,80,30.17,10.0,NW,4.6,-,N/A,,Overcast,320,2013-09-27 10:53:00
7:53 AM,55.9,50.0,80,30.19,10.0,NNW,3.5,-,N/A,,Overcast,330,2013-09-27 11:53:00
8:53 AM,59.0,50.0,72,30.20,10.0,North,3.5,-,N/A,,Overcast,360,2013-09-27 12:53:00
9:53 AM,62.1,50.0,65,30.22,10.0,NNE,6.9,-,N/A,,Overcast,30,2013-09-27 13:53:00
10:53 AM,63.0,50.0,63,30.22,10.0,NNE,6.9,-,N/A,,Overcast,30,2013-09-27 14:53:00
11:53 AM,63.0,51.1,65,30.22,10.0,Variable,4.6,-,N/A,,Overcast,0,2013-09-27 15:53:00
12:10 PM,62.6,50.0,63,30.22,10.0,North,6.9,-,N/A,,Overcast,360,2013-09-27 16:10:00
12:29 PM,62.6,51.8,68,30.22,10.0,North,6.9,-,N/A,,Overcast,350,2013-09-27 16:29:00
12:53 PM,63.0,51.1,65,30.22,10.0,North,6.9,-,N/A,,Overcast,350,2013-09-27 16:53:00
1:53 PM,64.9,51.1,61,30.20,10.0,Variable,6.9,-,N/A,,Overcast,0,2013-09-27 17:53:00
2:53 PM,66.0,51.1,59,30.20,10.0,ENE,9.2,-,N/A,,Clear,60,2013-09-27 18:53:00
3:53 PM,64.9,48.0,54,30.20,10.0,ENE,9.2,-,N/A,,Clear,70,2013-09-27 19:53:00
4:53 PM,64.0,46.9,54,30.21,10.0,ENE,6.9,-,N/A,,Clear,70,2013-09-27 20:53:00
5:53 PM,63.0,46.9,56,30.21,10.0,ENE,4.6,-,N/A,,Clear,70,2013-09-27 21:53:00
6:53 PM,55.0,48.0,77,30.22,10.0,Calm,Calm,-,N/A,,Clear,0,2013-09-27 22:53:00
7:53 PM,48.9,46.0,90,30.23,10.0,Calm,Calm,-,N/A,,Clear,0,2013-09-27 23:53:00
8:53 PM,48.9,46.0,90,30.24,7.0,Calm,Calm,-,N/A,,Clear,0,2013-09-28 00:53:00
9:53 PM,46.0,43.0,89,30.25,5.0,Calm,Calm,-,N/A,,Clear,0,2013-09-28 01:53:00
9:57 PM,46.4,44.6,93,30.25,1.8,Calm,Calm,-,N/A,,Clear,0,2013-09-28 01:57:00
10:08 PM,46.4,44.6,93,30.25,0.8,Calm,Calm,-,N/A,,Clear,0,2013-09-28 02:08:00
10:14 PM,46.4,44.6,93,30.25,3.0,Calm,Calm,-,N/A,,Clear,0,2013-09-28 02:14:00
10:53 PM,46.0,44.1,93,30.26,10.0,Calm,Calm,-,N/A,,Clear,0,2013-09-28 02:53:00
11:01 PM,42.8,42.8,100,30.26,1.8,Calm,Calm,-,N/A,,Partly Cloudy,0,2013-09-28 03:01:00
11:04 PM,42.8,42.8,100,30.26,0.8,Calm,Calm,-,N/A,,Mist,0,2013-09-28 03:04:00
11:24 PM,44.6,42.8,93,30.26,2.0,Calm,Calm,-,N/A,,Mostly Cloudy,0,2013-09-28 03:24:00
11:31 PM,44.6,42.8,93,30.26,4.0,Calm,Calm,-,N/A,,Scattered Clouds,0,2013-09-28 03:31:00
11:53 PM,45.0,42.1,90,30.26,10.0,Calm,Calm,-,N/A,,Clear,0,2013-09-28 03:53:00